Weather History for El Dorado, AR

Change the Weather History Date:

Monday, August 19, 2013

  Actual Average Record
Temperature  
Mean Temperature 78 °F 81 °F  
Max Temperature 91 °F 93 °F 108 °F (1999)
Min Temperature 64 °F 70 °F 61 °F (1943)
Degree Days  
Heating Degree Days 0 0  
Month to date heating degree days 0 0  
Since 1 June heating degree days 0 0  
Since 1 July heating degree days 0 0  
Cooling Degree Days 13 16  
Month to date cooling degree days 304 320  
Year to date cooling degree days 1461 1543  
Since 1 June cooling degree days 1183 1232  
Growing Degree Days 27 (Base 50)    
Moisture  
Dew Point 66 °F    
Average Humidity 71    
Maximum Humidity 100    
Minimum Humidity 41    
Precipitation  
Precipitation 0.00 in 0.10 in 2.65 in (2008)
Month to date precipitation T 1.96  
Year to date precipitation 25.82 33.40  
Snow  
Snow 0.00 in - - ()
Month to date snowfall  
Since 1 June snowfall  
Since 1 July snowfall  
Snow Depth -    
Sea Level Pressure  
Sea Level Pressure 30.04 in    
Wind  
Wind Speed 2 mph (NE)    
Max Wind Speed 9 mph    
Max Gust Speed 16 mph    
Visibility 9 miles    
Events      
T = Trace of Precipitation, MM = Missing Value Source: NWS Daily Summary

Daily Weather History Graph

Daily Weather History Graph

Search for Another Location

Airport:

Trip Planner

Search our weather history database for the weather conditions in past years. The results will help you decide how hot, cold, wet, or windy it might be!

Date:

Astronomy

Aug. 19, 2013 Rise Set
Actual Time 6:36 AM CDT 7:52 PM CDT
Civil Twilight 6:11 AM CDT 8:17 PM CDT
Nautical Twilight 5:40 AM CDT 8:48 PM CDT
Astronomical Twilight 5:08 AM CDT 9:20 PM CDT
Moon 6:43 PM CDT (8/19) 4:58 AM CDT (8/19)
Length of Visible Light 14h 06m
Length of Day
13h 15m
Waxing Gibbous, 97% of the Moon is Illuminated
Aug 19
Waxing Gibbous
Aug 20
Full
Aug 28
Last Quarter
Sep 5
New
Sep 12
First Quarter

Hourly Weather History & Observations

Time (CDT) Temp. Heat Index Dew Point Humidity Pressure Visibility Wind Dir Wind Speed Gust Speed Precip Events Conditions
12:53 AM 71.1 °F - 66.9 °F 87% 30.05 in 10.0 mi Calm Calm - N/A   Clear
1:53 AM 70.0 °F - 66.9 °F 90% 30.05 in 10.0 mi Calm Calm - N/A   Clear
2:53 AM 66.9 °F - 66.0 °F 97% 30.05 in 9.0 mi North 3.5 mph - N/A   Clear
3:53 AM 66.0 °F - 64.9 °F 96% 30.05 in 8.0 mi Calm Calm - N/A   Clear
4:53 AM 66.0 °F - 64.9 °F 96% 30.05 in 6.0 mi Calm Calm - N/A   Clear
5:53 AM 64.9 °F - 64.9 °F 100% 30.06 in 6.0 mi Calm Calm - N/A   Clear
6:53 AM 64.9 °F - 64.0 °F 97% 30.08 in 3.0 mi Calm Calm - N/A   Clear
7:46 AM 66.2 °F - 66.2 °F 100% 30.09 in 4.0 mi Calm Calm - N/A   Partly Cloudy
7:53 AM 68.0 °F - 66.9 °F 96% 30.09 in 4.0 mi Calm Calm - N/A   Partly Cloudy
8:53 AM 72.0 °F - 68.0 °F 87% 30.09 in 8.0 mi Calm Calm - N/A   Partly Cloudy
9:53 AM 78.1 °F - 70.0 °F 76% 30.10 in 10.0 mi Variable 3.5 mph - N/A   Clear
10:53 AM 82.0 °F 84.9 °F 68.0 °F 62% 30.09 in 10.0 mi NE 4.6 mph - N/A   Clear
11:53 AM 84.0 °F 86.3 °F 66.0 °F 55% 30.08 in 10.0 mi ESE 5.8 mph - N/A   Clear
12:53 PM 86.0 °F 87.6 °F 64.9 °F 49% 30.07 in 10.0 mi Variable 3.5 mph - N/A   Partly Cloudy
1:53 PM 86.0 °F 86.8 °F 63.0 °F 46% 30.04 in 10.0 mi East 3.5 mph - N/A   Clear
2:53 PM 88.0 °F 89.3 °F 64.0 °F 45% 30.02 in 10.0 mi ENE 6.9 mph - N/A   Mostly Cloudy
3:53 PM 90.0 °F 90.3 °F 62.1 °F 39% 30.00 in 10.0 mi Calm Calm - N/A   Partly Cloudy
4:53 PM 88.0 °F 88.7 °F 63.0 °F 43% 29.98 in 10.0 mi NE 5.8 mph - N/A   Scattered Clouds
5:53 PM 89.1 °F 90.0 °F 63.0 °F 42% 29.98 in 10.0 mi ENE 6.9 mph - N/A   Mostly Cloudy
6:53 PM 87.1 °F 87.8 °F 63.0 °F 44% 29.98 in 10.0 mi Calm Calm - N/A   Mostly Cloudy
7:53 PM 81.0 °F 83.8 °F 68.0 °F 65% 29.99 in 10.0 mi Calm Calm - N/A   Mostly Cloudy
8:53 PM 79.0 °F - 66.9 °F 66% 29.99 in 10.0 mi North 4.6 mph - N/A   Overcast
9:53 PM 78.1 °F - 66.0 °F 66% 30.01 in 10.0 mi ENE 4.6 mph - N/A   Scattered Clouds
10:53 PM 77.0 °F - 66.9 °F 71% 30.01 in 10.0 mi NE 3.5 mph - N/A   Mostly Cloudy
11:53 PM 73.9 °F - 66.9 °F 79% 30.01 in 10.0 mi Calm Calm - N/A   Scattered Clouds